This is the latest recevied weather packets stored in our database for station/object W0VI. If no packets are shown the sender has not sent any weather packets the latest 10 day(s).
| Time | Temp. | Humidity | Pressure | Rain* | Wind** | Luminosity | Snow |
|---|---|---|---|---|---|---|---|
| 1787697297 | 27.22° C | 73% | 1012 hPa | 0 mm | - | 181 W/m² | - |
| 1787696992 | 27.22° C | 73% | 1012.1 hPa | 0 mm | - | 237 W/m² | - |
| 1787696688 | 27.78° C | 73% | 1011.9 hPa | 0 mm | - | 247 W/m² | - |
| 1787696383 | 27.22° C | 73% | 1012.2 hPa | 0 mm | - | 291 W/m² | - |
| 1787696079 | 27.78° C | 72% | 1012.3 hPa | 0 mm | - | 110 W/m² | - |
| 1787695778 | 27.78° C | 72% | 1012.3 hPa | 0 mm | - | 296 W/m² | - |
| 1787695474 | 27.78° C | 71% | 1012.3 hPa | 0 mm | - | 245 W/m² | - |
| 1787695169 | 27.78° C | 72% | 1012.3 hPa | 0 mm | - | 301 W/m² | - |
| 1787694867 | 27.78° C | 72% | 1012.3 hPa | 0 mm | - | 322 W/m² | - |
| 1787694563 | 27.22° C | 72% | 1012.3 hPa | 0 mm | - | 347 W/m² | - |
| 1787694258 | 27.22° C | 73% | 1012.2 hPa | 0 mm | - | 330 W/m² | - |
| 1787693953 | 27.78° C | 71% | 1012.4 hPa | 0 mm | - | 347 W/m² | - |
| 1787693649 | 27.22° C | 72% | 1012.4 hPa | 0 mm | - | 386 W/m² | - |
| 1787693345 | 27.22° C | 73% | 1012.5 hPa | 0 mm | - | 371 W/m² | - |
| 1787693041 | 27.22° C | 72% | 1012.5 hPa | 0 mm | - | 387 W/m² | - |
| 1787692736 | 26.67° C | 73% | 1012.4 hPa | 0 mm | - | 413 W/m² | - |
| 1787692432 | 27.22° C | 72% | 1012.8 hPa | 0 mm | - | 312 W/m² | - |
| 1787692131 | 26.67° C | 73% | 1012.8 hPa | 0 mm | - | 422 W/m² | - |
| 1787691830 | 26.67° C | 73% | 1012.6 hPa | 0 mm | - | 331 W/m² | - |
| 1787691529 | 26.67° C | 73% | 1012.6 hPa | 0 mm | - | 511 W/m² | - |
| 1787691228 | 26.67° C | 72% | 1012.8 hPa | 0 mm | - | 279 W/m² | - |
| 1787690923 | 26.67° C | 72% | 1012.8 hPa | 0 mm | - | 504 W/m² | - |
| 1787690618 | 26.11° C | 73% | 1013 hPa | 0 mm | - | 344 W/m² | - |
| 1787690313 | 26.11° C | 73% | 1013.1 hPa | 0 mm | - | 360 W/m² | - |
| 1787690010 | 26.11° C | 74% | 1013.3 hPa | 0 mm | - | 413 W/m² | - |
* Rain latest hour (hover to see other rain measurements)
** Current wind speed in m/s (hover to see current wind gust speed)